contact:dominique.lefevre@mio.osupytheas.fr, maurice.libes@osupytheas.fr, didier.mallarino@osupytheas.fr
Project:EMSO http://www.emso-fr.org/EMSO-France
Depth: 2436.0 m
Title:EMSO Ligure Ouest : Data MII capteur MICROCAT
DateTime_Computer,Latitude,Longitude,Temperature,Conductivity,Pressure,DateTime_Instrument
DateTime_Computer,Latitude,Longitude,degC,S m-1,dbar,DateTime_Instrument
2021-01-26T00:02:21Z,42.805,6.029,13.2990,4.59999,2470.11,2021-1-26T02:03:23Z
2021-01-26T00:05:24Z,42.805,6.029,13.2991,4.59996,2470.11,2021-1-26T02:06:26Z
2021-01-26T00:08:27Z,42.805,6.029,13.2994,4.60003,2470.133,2021-1-26T02:09:29Z
2021-01-26T00:11:30Z,42.805,6.029,13.2993,4.60003,2470.087,2021-1-26T02:12:32Z
2021-01-26T00:14:33Z,42.805,6.029,13.2991,4.60000,2470.124,2021-1-26T02:15:35Z
2021-01-26T00:17:36Z,42.805,6.029,13.2988,4.59997,2470.119,2021-1-26T02:18:38Z
2021-01-26T00:20:39Z,42.805,6.029,13.2989,4.59998,2470.11,2021-1-26T02:21:41Z
2021-01-26T00:23:42Z,42.805,6.029,13.2991,4.60011,2470.1,2021-1-26T02:24:45Z
2021-01-26T00:26:45Z,42.805,6.029,13.2989,4.60009,2470.087,2021-1-26T02:27:48Z
2021-01-26T00:29:49Z,42.805,6.029,13.2990,4.59999,2470.124,2021-1-26T02:30:51Z
2021-01-26T00:32:52Z,42.805,6.029,13.2991,4.59997,2470.11,2021-1-26T02:33:54Z
2021-01-26T00:35:55Z,42.805,6.029,13.2991,4.60016,2470.124,2021-1-26T02:36:57Z
2021-01-26T00:38:58Z,42.805,6.029,13.2994,4.60015,2470.124,2021-1-26T02:40:00Z
2021-01-26T00:42:01Z,42.805,6.029,13.2992,4.60008,2470.133,2021-1-26T02:43:03Z
2021-01-26T00:45:04Z,42.805,6.029,13.2993,4.60003,2470.11,2021-1-26T02:46:06Z
2021-01-26T00:48:07Z,42.805,6.029,13.2988,4.59999,2470.147,2021-1-26T02:49:10Z
2021-01-26T00:51:10Z,42.805,6.029,13.2991,4.60001,2470.147,2021-1-26T02:52:13Z
2021-01-26T00:54:14Z,42.805,6.029,13.2991,4.59999,2470.124,2021-1-26T02:55:16Z
2021-01-26T00:57:17Z,42.805,6.029,13.2990,4.60001,2470.147,2021-1-26T02:58:19Z
2021-01-26T01:00:20Z,42.805,6.029,13.2993,4.60014,2470.11,2021-1-26T03:01:22Z
2021-01-26T01:03:23Z,42.805,6.029,13.2991,4.60001,2470.124,2021-1-26T03:04:25Z
2021-01-26T01:06:26Z,42.805,6.029,13.2989,4.60007,2470.124,2021-1-26T03:07:28Z
2021-01-26T01:09:29Z,42.805,6.029,13.2990,4.60006,2470.124,2021-1-26T03:10:31Z
2021-01-26T01:12:32Z,42.805,6.029,13.2992,4.60001,2470.147,2021-1-26T03:13:35Z
2021-01-26T01:15:35Z,42.805,6.029,13.2992,4.60003,2470.133,2021-1-26T03:16:38Z
2021-01-26T01:18:39Z,42.805,6.029,13.2990,4.60001,2470.133,2021-1-26T03:19:41Z
2021-01-26T01:21:42Z,42.805,6.029,13.2989,4.59998,2470.124,2021-1-26T03:22:44Z
2021-01-26T01:24:45Z,42.805,6.029,13.2991,4.60009,2470.171,2021-1-26T03:25:47Z
2021-01-26T01:27:48Z,42.805,6.029,13.2991,4.60003,2470.171,2021-1-26T03:28:50Z
2021-01-26T01:30:51Z,42.805,6.029,13.2993,4.60007,2470.147,2021-1-26T03:31:53Z
2021-01-26T01:33:54Z,42.805,6.029,13.2991,4.59998,2470.11,2021-1-26T03:34:56Z
2021-01-26T01:36:57Z,42.805,6.029,13.2997,4.60006,2470.194,2021-1-26T03:38:00Z
2021-01-26T01:40:00Z,42.805,6.029,13.2989,4.60003,2470.147,2021-1-26T03:41:03Z
2021-01-26T01:43:04Z,42.805,6.029,13.2990,4.60003,2470.147,2021-1-26T03:44:06Z
2021-01-26T01:46:07Z,42.805,6.029,13.2996,4.60013,2470.147,2021-1-26T03:47:09Z
2021-01-26T01:49:10Z,42.805,6.029,13.2998,4.60009,2470.11,2021-1-26T03:50:12Z
2021-01-26T01:52:13Z,42.805,6.029,13.2989,4.59999,2470.18,2021-1-26T03:53:15Z
2021-01-26T01:55:16Z,42.805,6.029,13.2996,4.60020,2470.171,2021-1-26T03:56:18Z
2021-01-26T01:58:19Z,42.805,6.029,13.2992,4.60001,2470.133,2021-1-26T03:59:21Z
2021-01-26T02:01:22Z,42.805,6.029,13.2993,4.60010,2470.156,2021-1-26T04:02:25Z
2021-01-26T02:04:25Z,42.805,6.029,13.2990,4.60003,2470.133,2021-1-26T04:05:28Z
2021-01-26T02:07:29Z,42.805,6.029,13.2998,4.60016,2470.156,2021-1-26T04:08:31Z
2021-01-26T02:10:32Z,42.805,6.029,13.2986,4.59999,2470.18,2021-1-26T04:11:34Z
2021-01-26T02:13:35Z,42.805,6.029,13.2991,4.59998,2470.171,2021-1-26T04:14:37Z
2021-01-26T02:16:38Z,42.805,6.029,13.2991,4.60017,2470.156,2021-1-26T04:17:40Z
2021-01-26T02:19:41Z,42.805,6.029,13.2988,4.60002,2470.18,2021-1-26T04:20:43Z
2021-01-26T02:22:44Z,42.805,6.029,13.2990,4.59997,2470.18,2021-1-26T04:23:46Z
2021-01-26T02:25:47Z,42.805,6.029,13.2992,4.59999,2470.156,2021-1-26T04:26:50Z
2021-01-26T02:28:50Z,42.805,6.029,13.2994,4.60005,2470.18,2021-1-26T04:29:53Z
2021-01-26T02:31:54Z,42.805,6.029,13.2993,4.60014,2470.156,2021-1-26T04:32:56Z
2021-01-26T02:34:57Z,42.805,6.029,13.2991,4.60002,2470.18,2021-1-26T04:35:59Z
2021-01-26T02:38:00Z,42.805,6.029,13.2994,4.60010,2470.194,2021-1-26T04:39:02Z
2021-01-26T02:41:03Z,42.805,6.029,13.2996,4.60003,2470.18,2021-1-26T04:42:05Z
2021-01-26T02:44:06Z,42.805,6.029,13.2995,4.60002,2470.171,2021-1-26T04:45:08Z
2021-01-26T02:47:09Z,42.805,6.029,13.2990,4.60009,2470.133,2021-1-26T04:48:11Z
2021-01-26T02:50:12Z,42.805,6.029,13.2990,4.60001,2470.194,2021-1-26T04:51:15Z
2021-01-26T02:53:15Z,42.805,6.029,13.2997,4.60004,2470.203,2021-1-26T04:54:18Z
2021-01-26T02:56:19Z,42.805,6.029,13.2993,4.60009,2470.18,2021-1-26T04:57:21Z
2021-01-26T02:59:22Z,42.805,6.029,13.2993,4.60002,2470.18,2021-1-26T05:00:24Z
2021-01-26T03:02:25Z,42.805,6.029,13.2986,4.60005,2470.227,2021-1-26T05:03:27Z
2021-01-26T03:05:28Z,42.805,6.029,13.2991,4.60001,2470.203,2021-1-26T05:06:30Z
2021-01-26T03:08:31Z,42.805,6.029,13.2990,4.60011,2470.217,2021-1-26T05:09:33Z
2021-01-26T03:11:34Z,42.805,6.029,13.2994,4.60008,2470.18,2021-1-26T05:12:36Z
2021-01-26T03:14:37Z,42.805,6.029,13.2993,4.60016,2470.203,2021-1-26T05:15:40Z
2021-01-26T03:17:40Z,42.805,6.029,13.2995,4.60011,2470.18,2021-1-26T05:18:43Z
2021-01-26T03:20:43Z,42.805,6.029,13.2997,4.60010,2470.194,2021-1-26T05:21:46Z
2021-01-26T03:23:47Z,42.805,6.029,13.2993,4.60003,2470.24,2021-1-26T05:24:49Z
2021-01-26T03:26:50Z,42.805,6.029,13.2998,4.60011,2470.217,2021-1-26T05:27:52Z
2021-01-26T03:29:53Z,42.805,6.029,13.2993,4.60009,2470.227,2021-1-26T05:30:55Z
2021-01-26T03:32:56Z,42.805,6.029,13.2997,4.60002,2470.227,2021-1-26T05:33:58Z
2021-01-26T03:35:59Z,42.805,6.029,13.3000,4.60011,2470.18,2021-1-26T05:37:01Z
2021-01-26T03:39:02Z,42.805,6.029,13.2986,4.60005,2470.24,2021-1-26T05:40:04Z
2021-01-26T03:42:05Z,42.805,6.029,13.2993,4.60006,2470.227,2021-1-26T05:43:08Z
2021-01-26T03:45:08Z,42.805,6.029,13.2991,4.59997,2470.203,2021-1-26T05:46:11Z
2021-01-26T03:48:12Z,42.805,6.029,13.2995,4.60015,2470.24,2021-1-26T05:49:14Z
2021-01-26T03:51:15Z,42.805,6.029,13.2991,4.60002,2470.25,2021-1-26T05:52:17Z
2021-01-26T03:54:18Z,42.805,6.029,13.2989,4.60008,2470.24,2021-1-26T05:55:20Z
2021-01-26T03:57:21Z,42.805,6.029,13.2991,4.60008,2470.264,2021-1-26T05:58:23Z
2021-01-26T04:00:24Z,42.805,6.029,13.2991,4.60001,2470.25,2021-1-26T06:01:26Z
2021-01-26T04:03:27Z,42.805,6.029,13.2990,4.60003,2470.25,2021-1-26T06:04:29Z
2021-01-26T04:06:30Z,42.805,6.029,13.2990,4.60007,2470.264,2021-1-26T06:07:33Z
2021-01-26T04:09:33Z,42.805,6.029,13.2993,4.60005,2470.25,2021-1-26T06:10:36Z
2021-01-26T04:12:37Z,42.805,6.029,13.2991,4.60005,2470.264,2021-1-26T06:13:39Z
2021-01-26T04:15:40Z,42.805,6.029,13.2996,4.60024,2470.273,2021-1-26T06:16:42Z
2021-01-26T04:18:43Z,42.805,6.029,13.2992,4.60007,2470.273,2021-1-26T06:19:45Z
2021-01-26T04:21:46Z,42.805,6.029,13.2992,4.60007,2470.273,2021-1-26T06:22:48Z
2021-01-26T04:24:49Z,42.805,6.029,13.2990,4.60003,2470.264,2021-1-26T06:25:51Z
2021-01-26T04:27:52Z,42.805,6.029,13.2989,4.59999,2470.287,2021-1-26T06:28:54Z
2021-01-26T04:30:55Z,42.805,6.029,13.2990,4.59996,2470.264,2021-1-26T06:31:58Z
2021-01-26T04:33:58Z,42.805,6.029,13.2987,4.59998,2470.297,2021-1-26T06:35:01Z
2021-01-26T04:37:02Z,42.805,6.029,13.2987,4.59999,2470.273,2021-1-26T06:38:04Z
2021-01-26T04:40:05Z,42.805,6.029,13.2996,4.60005,2470.264,2021-1-26T06:41:07Z
2021-01-26T04:43:08Z,42.805,6.029,13.2991,4.60002,2470.25,2021-1-26T06:44:10Z
2021-01-26T04:46:11Z,42.805,6.029,13.2990,4.59999,2470.31,2021-1-26T06:47:13Z
2021-01-26T04:49:14Z,42.805,6.029,13.2993,4.60003,2470.31,2021-1-26T06:50:16Z
2021-01-26T04:52:17Z,42.805,6.029,13.2989,4.60001,2470.297,2021-1-26T06:53:19Z
2021-01-26T04:55:20Z,42.805,6.029,13.2996,4.60003,2470.287,2021-1-26T06:56:23Z
2021-01-26T04:58:23Z,42.805,6.029,13.2988,4.60003,2470.297,2021-1-26T06:59:26Z
2021-01-26T05:01:26Z,42.805,6.029,13.2993,4.60019,2470.32,2021-1-26T07:02:29Z
2021-01-26T05:04:30Z,42.805,6.029,13.2986,4.60000,2470.31,2021-1-26T07:05:32Z
2021-01-26T05:07:33Z,42.805,6.029,13.2990,4.60000,2470.334,2021-1-26T07:08:35Z
2021-01-26T05:10:36Z,42.805,6.029,13.2994,4.60002,2470.31,2021-1-26T07:11:38Z
2021-01-26T05:13:39Z,42.805,6.029,13.2990,4.60007,2470.32,2021-1-26T07:14:41Z
2021-01-26T05:16:42Z,42.805,6.029,13.2991,4.59999,2470.32,2021-1-26T07:17:44Z
2021-01-26T05:19:45Z,42.805,6.029,13.2988,4.59999,2470.343,2021-1-26T07:20:48Z
2021-01-26T05:22:48Z,42.805,6.029,13.2991,4.59998,2470.334,2021-1-26T07:23:51Z
2021-01-26T05:25:51Z,42.805,6.029,13.2989,4.59998,2470.38,2021-1-26T07:26:54Z
2021-01-26T05:28:55Z,42.805,6.029,13.2992,4.60009,2470.297,2021-1-26T07:29:57Z
2021-01-26T05:31:58Z,42.805,6.029,13.2987,4.60001,2470.334,2021-1-26T07:33:00Z
2021-01-26T05:35:01Z,42.805,6.029,13.2983,4.59996,2470.334,2021-1-26T07:36:03Z
2021-01-26T05:38:04Z,42.805,6.029,13.2988,4.59999,2470.334,2021-1-26T07:39:06Z
2021-01-26T05:41:07Z,42.805,6.029,13.2991,4.59996,2470.32,2021-1-26T07:42:09Z
2021-01-26T05:44:10Z,42.805,6.029,13.2989,4.59999,2470.297,2021-1-26T07:45:12Z
2021-01-26T05:47:13Z,42.805,6.029,13.2990,4.59999,2470.334,2021-1-26T07:48:16Z
2021-01-26T05:50:16Z,42.805,6.029,13.2988,4.60010,2470.31,2021-1-26T07:51:19Z
2021-01-26T05:53:20Z,42.805,6.029,13.2988,4.60003,2470.31,2021-1-26T07:54:22Z
2021-01-26T05:56:23Z,42.805,6.029,13.2993,4.60001,2470.32,2021-1-26T07:57:25Z
2021-01-26T05:59:26Z,42.805,6.029,13.2990,4.60002,2470.297,2021-1-26T08:00:28Z
2021-01-26T06:02:29Z,42.805,6.029,13.2995,4.60001,2470.31,2021-1-26T08:03:31Z
2021-01-26T06:05:32Z,42.805,6.029,13.2993,4.60000,2470.32,2021-1-26T08:06:34Z
2021-01-26T06:08:35Z,42.805,6.029,13.2986,4.59999,2470.31,2021-1-26T08:09:37Z
2021-01-26T06:11:38Z,42.805,6.029,13.2991,4.60002,2470.31,2021-1-26T08:12:41Z
2021-01-26T06:14:41Z,42.805,6.029,13.2992,4.60003,2470.297,2021-1-26T08:15:44Z
2021-01-26T06:17:44Z,42.805,6.029,13.2991,4.60006,2470.32,2021-1-26T08:18:47Z
2021-01-26T06:20:48Z,42.805,6.029,13.2990,4.59999,2470.32,2021-1-26T08:21:50Z
2021-01-26T06:23:51Z,42.805,6.029,13.2991,4.60000,2470.297,2021-1-26T08:24:53Z
2021-01-26T06:26:54Z,42.805,6.029,13.2990,4.59997,2470.357,2021-1-26T08:27:56Z
2021-01-26T06:29:57Z,42.805,6.029,13.2988,4.59999,2470.343,2021-1-26T08:30:59Z
2021-01-26T06:33:00Z,42.805,6.029,13.2987,4.59999,2470.334,2021-1-26T08:34:02Z
2021-01-26T06:36:03Z,42.805,6.029,13.2991,4.60001,2470.334,2021-1-26T08:37:06Z
2021-01-26T06:39:06Z,42.805,6.029,13.2988,4.60001,2470.343,2021-1-26T08:40:09Z
2021-01-26T06:42:09Z,42.805,6.029,13.2997,4.59998,2470.297,2021-1-26T08:43:12Z
2021-01-26T06:45:13Z,42.805,6.029,13.2987,4.59999,2470.334,2021-1-26T08:46:15Z
2021-01-26T06:48:16Z,42.805,6.029,13.2985,4.59999,2470.297,2021-1-26T08:49:18Z
2021-01-26T06:51:19Z,42.805,6.029,13.2989,4.59998,2470.32,2021-1-26T08:52:21Z
2021-01-26T06:54:22Z,42.805,6.029,13.2987,4.59998,2470.343,2021-1-26T08:55:24Z
2021-01-26T06:57:25Z,42.805,6.029,13.2995,4.60005,2470.334,2021-1-26T08:58:27Z
2021-01-26T07:00:28Z,42.805,6.029,13.2986,4.60002,2470.32,2021-1-26T09:01:30Z
2021-01-26T07:03:31Z,42.805,6.029,13.2988,4.59998,2470.32,2021-1-26T09:04:34Z
2021-01-26T07:06:34Z,42.805,6.029,13.2987,4.59996,2470.297,2021-1-26T09:07:37Z
2021-01-26T07:09:38Z,42.805,6.029,13.2989,4.59999,2470.32,2021-1-26T09:10:40Z
2021-01-26T07:12:41Z,42.805,6.029,13.2990,4.59994,2470.32,2021-1-26T09:13:43Z
2021-01-26T07:15:44Z,42.805,6.029,13.2990,4.60001,2470.297,2021-1-26T09:16:46Z
2021-01-26T07:18:47Z,42.805,6.029,13.2992,4.60002,2470.31,2021-1-26T09:19:49Z
2021-01-26T07:21:50Z,42.805,6.029,13.2990,4.59999,2470.297,2021-1-26T09:22:52Z
2021-01-26T07:24:53Z,42.805,6.029,13.2990,4.60000,2470.297,2021-1-26T09:25:55Z
2021-01-26T07:27:56Z,42.805,6.029,13.2988,4.59996,2470.297,2021-1-26T09:28:59Z
2021-01-26T07:30:59Z,42.805,6.029,13.2986,4.59996,2470.287,2021-1-26T09:32:02Z
2021-01-26T07:34:03Z,42.805,6.029,13.2989,4.59998,2470.334,2021-1-26T09:35:05Z
2021-01-26T07:37:06Z,42.805,6.029,13.2990,4.59999,2470.334,2021-1-26T09:38:08Z
2021-01-26T07:40:09Z,42.805,6.029,13.2991,4.60016,2470.32,2021-1-26T09:41:11Z
2021-01-26T07:43:12Z,42.805,6.029,13.2995,4.60014,2470.31,2021-1-26T09:44:14Z
2021-01-26T07:46:15Z,42.805,6.029,13.2991,4.60009,2470.31,2021-1-26T09:47:17Z
2021-01-26T07:49:18Z,42.805,6.029,13.2986,4.59995,2470.297,2021-1-26T09:50:20Z
2021-01-26T07:52:21Z,42.805,6.029,13.2988,4.60000,2470.334,2021-1-26T09:53:24Z
2021-01-26T07:55:24Z,42.805,6.029,13.2992,4.59999,2470.31,2021-1-26T09:56:27Z
2021-01-26T07:58:28Z,42.805,6.029,13.2993,4.60002,2470.31,2021-1-26T09:59:30Z
2021-01-26T08:01:31Z,42.805,6.029,13.2988,4.59996,2470.297,2021-1-26T10:02:33Z
2021-01-26T08:04:34Z,42.805,6.029,13.2986,4.59993,2470.297,2021-1-26T10:05:36Z
2021-01-26T08:07:37Z,42.805,6.029,13.2987,4.59995,2470.287,2021-1-26T10:08:39Z
2021-01-26T08:10:40Z,42.805,6.029,13.2983,4.59994,2470.31,2021-1-26T10:11:42Z
2021-01-26T08:13:43Z,42.805,6.029,13.2985,4.59992,2470.264,2021-1-26T10:14:45Z
2021-01-26T08:16:46Z,42.805,6.029,13.2986,4.59996,2470.31,2021-1-26T10:17:49Z
2021-01-26T08:19:49Z,42.805,6.029,13.2989,4.59999,2470.273,2021-1-26T10:20:52Z
2021-01-26T08:22:53Z,42.805,6.029,13.2982,4.59994,2470.297,2021-1-26T10:23:55Z
2021-01-26T08:25:56Z,42.805,6.029,13.2984,4.59993,2470.334,2021-1-26T10:26:58Z
2021-01-26T08:28:59Z,42.805,6.029,13.2986,4.59994,2470.287,2021-1-26T10:30:01Z
2021-01-26T08:32:02Z,42.805,6.029,13.2983,4.59996,2470.297,2021-1-26T10:33:04Z
2021-01-26T08:35:05Z,42.805,6.029,13.2989,4.59998,2470.297,2021-1-26T10:36:07Z
2021-01-26T08:38:08Z,42.805,6.029,13.2986,4.59994,2470.31,2021-1-26T10:39:10Z
2021-01-26T08:41:11Z,42.805,6.029,13.2985,4.59993,2470.297,2021-1-26T10:42:14Z
2021-01-26T08:44:14Z,42.805,6.029,13.2987,4.59996,2470.31,2021-1-26T10:45:17Z
2021-01-26T08:47:18Z,42.805,6.029,13.2986,4.59996,2470.31,2021-1-26T10:48:20Z
2021-01-26T08:50:21Z,42.805,6.029,13.2985,4.60000,2470.334,2021-1-26T10:51:23Z
2021-01-26T08:53:24Z,42.805,6.029,13.2986,4.59994,2470.334,2021-1-26T10:54:26Z
2021-01-26T08:56:27Z,42.805,6.029,13.2986,4.59991,2470.334,2021-1-26T10:57:29Z
2021-01-26T08:59:30Z,42.805,6.029,13.2982,4.59991,2470.32,2021-1-26T11:00:32Z
2021-01-26T09:02:33Z,42.805,6.029,13.2986,4.59995,2470.334,2021-1-26T11:03:35Z
2021-01-26T09:05:36Z,42.805,6.029,13.2988,4.59993,2470.32,2021-1-26T11:06:39Z
2021-01-26T09:08:39Z,42.805,6.029,13.2988,4.59993,2470.297,2021-1-26T11:09:42Z
2021-01-26T09:11:43Z,42.805,6.029,13.2986,4.59993,2470.273,2021-1-26T11:12:45Z
2021-01-26T09:14:46Z,42.805,6.029,13.2990,4.59996,2470.273,2021-1-26T11:15:48Z
2021-01-26T09:17:49Z,42.805,6.029,13.2986,4.60001,2470.297,2021-1-26T11:18:51Z
2021-01-26T09:20:52Z,42.805,6.029,13.2985,4.59991,2470.273,2021-1-26T11:21:54Z
2021-01-26T09:23:55Z,42.805,6.029,13.2985,4.59994,2470.31,2021-1-26T11:24:57Z
2021-01-26T09:26:58Z,42.805,6.029,13.2986,4.59991,2470.32,2021-1-26T11:28:01Z
2021-01-26T09:30:01Z,42.805,6.029,13.2982,4.59994,2470.287,2021-1-26T11:31:04Z
2021-01-26T09:33:04Z,42.805,6.029,13.2982,4.59991,2470.273,2021-1-26T11:34:07Z
2021-01-26T09:36:08Z,42.805,6.029,13.2986,4.59994,2470.25,2021-1-26T11:37:10Z
2021-01-26T09:39:11Z,42.805,6.029,13.2984,4.59995,2470.25,2021-1-26T11:40:13Z
2021-01-26T09:42:14Z,42.805,6.029,13.2983,4.59994,2470.273,2021-1-26T11:43:16Z
2021-01-26T09:45:17Z,42.805,6.029,13.2984,4.59991,2470.297,2021-1-26T11:46:19Z
2021-01-26T09:48:20Z,42.805,6.029,13.2986,4.59992,2470.287,2021-1-26T11:49:22Z
2021-01-26T09:51:23Z,42.805,6.029,13.2983,4.59992,2470.264,2021-1-26T11:52:26Z
2021-01-26T09:54:26Z,42.805,6.029,13.2981,4.59991,2470.297,2021-1-26T11:55:29Z
2021-01-26T09:57:30Z,42.805,6.029,13.2983,4.59991,2470.273,2021-1-26T11:58:32Z
2021-01-26T10:00:33Z,42.805,6.029,13.2980,4.59990,2470.227,2021-1-26T12:01:35Z
2021-01-26T10:03:36Z,42.805,6.029,13.2983,4.59991,2470.264,2021-1-26T12:04:38Z
2021-01-26T10:06:39Z,42.805,6.029,13.2981,4.59990,2470.273,2021-1-26T12:07:41Z
2021-01-26T10:09:42Z,42.805,6.029,13.2983,4.59991,2470.25,2021-1-26T12:10:44Z
2021-01-26T10:12:45Z,42.805,6.029,13.2980,4.59992,2470.264,2021-1-26T12:13:47Z
2021-01-26T10:15:48Z,42.805,6.029,13.2983,4.59991,2470.273,2021-1-26T12:16:51Z
2021-01-26T10:18:51Z,42.805,6.029,13.2988,4.60001,2470.273,2021-1-26T12:19:54Z
2021-01-26T10:21:55Z,42.805,6.029,13.2982,4.59991,2470.25,2021-1-26T12:22:57Z
2021-01-26T10:24:58Z,42.805,6.029,13.2979,4.59990,2470.227,2021-1-26T12:26:00Z
2021-01-26T10:28:01Z,42.805,6.029,13.2985,4.59992,2470.227,2021-1-26T12:29:03Z
2021-01-26T10:31:04Z,42.805,6.029,13.2986,4.59994,2470.273,2021-1-26T12:32:06Z
2021-01-26T10:34:07Z,42.805,6.029,13.2986,4.59994,2470.24,2021-1-26T12:35:09Z
2021-01-26T10:37:10Z,42.805,6.029,13.2987,4.59995,2470.264,2021-1-26T12:38:12Z
2021-01-26T10:40:13Z,42.805,6.029,13.2983,4.59990,2470.25,2021-1-26T12:41:16Z
2021-01-26T10:43:16Z,42.805,6.029,13.2984,4.59988,2470.25,2021-1-26T12:44:19Z
2021-01-26T10:46:20Z,42.805,6.029,13.2983,4.59991,2470.25,2021-1-26T12:47:22Z
2021-01-26T10:49:23Z,42.805,6.029,13.2984,4.59990,2470.25,2021-1-26T12:50:25Z
2021-01-26T10:52:26Z,42.805,6.029,13.2990,4.59991,2470.227,2021-1-26T12:53:28Z
2021-01-26T10:55:29Z,42.805,6.029,13.2980,4.59991,2470.203,2021-1-26T12:56:31Z
2021-01-26T10:58:32Z,42.805,6.029,13.2980,4.59991,2470.24,2021-1-26T12:59:34Z
2021-01-26T11:01:35Z,42.805,6.029,13.2982,4.59990,2470.25,2021-1-26T13:02:38Z
2021-01-26T11:04:38Z,42.805,6.029,13.2983,4.59991,2470.217,2021-1-26T13:05:41Z
2021-01-26T11:07:41Z,42.805,6.029,13.2986,4.59991,2470.227,2021-1-26T13:08:44Z
2021-01-26T11:10:45Z,42.805,6.029,13.2983,4.59995,2470.227,2021-1-26T13:11:47Z
2021-01-26T11:13:48Z,42.805,6.029,13.2983,4.59992,2470.24,2021-1-26T13:14:50Z
2021-01-26T11:16:51Z,42.805,6.029,13.2983,4.59994,2470.227,2021-1-26T13:17:53Z
2021-01-26T11:19:54Z,42.805,6.029,13.2991,4.59995,2470.217,2021-1-26T13:20:56Z
2021-01-26T11:22:57Z,42.805,6.029,13.2986,4.59995,2470.24,2021-1-26T13:23:59Z
2021-01-26T11:26:00Z,42.805,6.029,13.2984,4.59992,2470.227,2021-1-26T13:27:02Z
2021-01-26T11:29:03Z,42.805,6.029,13.2983,4.59992,2470.24,2021-1-26T13:30:06Z
2021-01-26T11:32:06Z,42.805,6.029,13.2985,4.59993,2470.203,2021-1-26T13:33:09Z
2021-01-26T11:35:10Z,42.805,6.029,13.2991,4.60004,2470.18,2021-1-26T13:36:12Z
2021-01-26T11:38:13Z,42.805,6.029,13.2982,4.59995,2470.18,2021-1-26T13:39:15Z
2021-01-26T11:41:16Z,42.805,6.029,13.2990,4.59996,2470.203,2021-1-26T13:42:18Z
2021-01-26T11:44:19Z,42.805,6.029,13.2985,4.59996,2470.203,2021-1-26T13:45:21Z
2021-01-26T11:47:22Z,42.805,6.029,13.2989,4.59998,2470.217,2021-1-26T13:48:24Z
2021-01-26T11:50:25Z,42.805,6.029,13.2988,4.59998,2470.18,2021-1-26T13:51:28Z
2021-01-26T11:53:28Z,42.805,6.029,13.2987,4.60009,2470.203,2021-1-26T13:54:31Z
2021-01-26T11:56:31Z,42.805,6.029,13.2989,4.60001,2470.203,2021-1-26T13:57:34Z
2021-01-26T11:59:35Z,42.805,6.029,13.2995,4.60013,2470.217,2021-1-26T14:00:37Z
2021-01-26T12:02:38Z,42.805,6.029,13.2984,4.59996,2470.227,2021-1-26T14:03:40Z
2021-01-26T12:05:41Z,42.805,6.029,13.2990,4.60001,2470.156,2021-1-26T14:06:43Z
2021-01-26T12:08:44Z,42.805,6.029,13.2994,4.60017,2470.217,2021-1-26T14:09:46Z
2021-01-26T12:11:47Z,42.805,6.029,13.3002,4.60016,2470.156,2021-1-26T14:12:49Z
2021-01-26T12:14:50Z,42.805,6.029,13.2991,4.60004,2470.18,2021-1-26T14:15:53Z
2021-01-26T12:17:53Z,42.805,6.029,13.2988,4.59998,2470.156,2021-1-26T14:18:56Z
2021-01-26T12:20:56Z,42.805,6.029,13.2991,4.60011,2470.203,2021-1-26T14:21:59Z
2021-01-26T12:24:00Z,42.805,6.029,13.2991,4.60014,2470.18,2021-1-26T14:25:02Z
2021-01-26T12:27:03Z,42.805,6.029,13.2990,4.60013,2470.203,2021-1-26T14:28:05Z
2021-01-26T12:30:06Z,42.805,6.029,13.2990,4.59999,2470.203,2021-1-26T14:31:08Z
2021-01-26T12:33:09Z,42.805,6.029,13.2993,4.60004,2470.156,2021-1-26T14:34:11Z
2021-01-26T12:36:12Z,42.805,6.029,13.2994,4.60006,2470.171,2021-1-26T14:37:14Z
2021-01-26T12:39:15Z,42.805,6.029,13.2988,4.59997,2470.166,2021-1-26T14:40:18Z
2021-01-26T12:42:18Z,42.805,6.029,13.3000,4.60012,2470.194,2021-1-26T14:43:21Z
2021-01-26T12:45:21Z,42.805,6.029,13.2998,4.60019,2470.194,2021-1-26T14:46:24Z
2021-01-26T12:48:25Z,42.805,6.029,13.2992,4.60004,2470.194,2021-1-26T14:49:27Z
2021-01-26T12:51:28Z,42.805,6.029,13.2990,4.60009,2470.203,2021-1-26T14:52:30Z
2021-01-26T12:54:31Z,42.805,6.029,13.2994,4.60001,2470.18,2021-1-26T14:55:33Z
2021-01-26T12:57:34Z,42.805,6.029,13.2990,4.60006,2470.18,2021-1-26T14:58:36Z
2021-01-26T13:00:37Z,42.805,6.029,13.2993,4.60015,2470.18,2021-1-26T15:01:39Z
2021-01-26T13:03:40Z,42.805,6.029,13.2990,4.60006,2470.203,2021-1-26T15:04:43Z
2021-01-26T13:06:43Z,42.805,6.029,13.2991,4.60013,2470.203,2021-1-26T15:07:46Z
2021-01-26T13:09:46Z,42.805,6.029,13.2985,4.60003,2470.156,2021-1-26T15:10:49Z
2021-01-26T13:12:50Z,42.805,6.029,13.2990,4.60003,2470.171,2021-1-26T15:13:52Z
2021-01-26T13:15:53Z,42.805,6.029,13.2990,4.60001,2470.18,2021-1-26T15:16:55Z
2021-01-26T13:18:56Z,42.805,6.029,13.2994,4.60011,2470.203,2021-1-26T15:19:58Z
2021-01-26T13:21:59Z,42.805,6.029,13.2993,4.60016,2470.156,2021-1-26T15:23:01Z
2021-01-26T13:25:02Z,42.805,6.029,13.2996,4.60003,2470.147,2021-1-26T15:26:04Z
2021-01-26T13:28:05Z,42.805,6.029,13.2989,4.59997,2470.18,2021-1-26T15:29:08Z
2021-01-26T13:31:08Z,42.805,6.029,13.2990,4.60001,2470.171,2021-1-26T15:32:11Z
2021-01-26T13:34:12Z,42.805,6.029,13.2991,4.60000,2470.171,2021-1-26T15:35:14Z
2021-01-26T13:37:15Z,42.805,6.029,13.2987,4.60000,2470.18,2021-1-26T15:38:17Z
2021-01-26T13:40:18Z,42.805,6.029,13.2988,4.60001,2470.156,2021-1-26T15:41:20Z
2021-01-26T13:43:21Z,42.805,6.029,13.2991,4.60003,2470.171,2021-1-26T15:44:23Z
2021-01-26T13:46:24Z,42.805,6.029,13.2998,4.60010,2470.171,2021-1-26T15:47:26Z
2021-01-26T13:49:27Z,42.805,6.029,13.2995,4.60011,2470.18,2021-1-26T15:50:29Z
2021-01-26T13:52:30Z,42.805,6.029,13.2990,4.60004,2470.171,2021-1-26T15:53:33Z
2021-01-26T13:55:33Z,42.805,6.029,13.2994,4.60000,2470.171,2021-1-26T15:56:36Z
2021-01-26T13:58:37Z,42.805,6.029,13.2996,4.60017,2470.217,2021-1-26T15:59:39Z
2021-01-26T14:01:40Z,42.805,6.029,13.2989,4.60007,2470.156,2021-1-26T16:02:42Z
2021-01-26T14:04:43Z,42.805,6.029,13.2994,4.60016,2470.133,2021-1-26T16:05:45Z
2021-01-26T14:07:46Z,42.805,6.029,13.2990,4.59999,2470.133,2021-1-26T16:08:48Z
2021-01-26T14:10:49Z,42.805,6.029,13.2986,4.60000,2470.156,2021-1-26T16:11:51Z
2021-01-26T14:13:52Z,42.805,6.029,13.2995,4.60019,2470.18,2021-1-26T16:14:55Z
2021-01-26T14:16:55Z,42.805,6.029,13.2987,4.60003,2470.156,2021-1-26T16:17:58Z
2021-01-26T14:19:58Z,42.805,6.029,13.3003,4.60009,2470.156,2021-1-26T16:21:01Z
2021-01-26T14:23:02Z,42.805,6.029,13.2997,4.60016,2470.143,2021-1-26T16:24:04Z
2021-01-26T14:26:05Z,42.805,6.029,13.2983,4.60001,2470.18,2021-1-26T16:27:07Z
2021-01-26T14:29:08Z,42.805,6.029,13.2996,4.60009,2470.18,2021-1-26T16:30:10Z
2021-01-26T14:32:11Z,42.805,6.029,13.3001,4.60008,2470.171,2021-1-26T16:33:13Z
2021-01-26T14:35:14Z,42.805,6.029,13.2997,4.60016,2470.18,2021-1-26T16:36:16Z
2021-01-26T14:38:17Z,42.805,6.029,13.3002,4.60026,2470.156,2021-1-26T16:39:20Z
2021-01-26T14:41:20Z,42.805,6.029,13.2997,4.60022,2470.18,2021-1-26T16:42:23Z
2021-01-26T14:44:23Z,42.805,6.029,13.2993,4.60028,2470.18,2021-1-26T16:45:26Z
2021-01-26T14:47:27Z,42.805,6.029,13.2987,4.60004,2470.18,2021-1-26T16:48:29Z
2021-01-26T14:50:30Z,42.805,6.029,13.2994,4.60023,2470.18,2021-1-26T16:51:32Z
2021-01-26T14:53:33Z,42.805,6.029,13.2999,4.60008,2470.156,2021-1-26T16:54:35Z
2021-01-26T14:56:36Z,42.805,6.029,13.2992,4.60001,2470.194,2021-1-26T16:57:38Z
2021-01-26T14:59:39Z,42.805,6.029,13.2991,4.60008,2470.18,2021-1-26T17:00:41Z
2021-01-26T15:02:42Z,42.805,6.029,13.2991,4.59999,2470.217,2021-1-26T17:03:45Z
2021-01-26T15:05:45Z,42.805,6.029,13.2989,4.60003,2470.133,2021-1-26T17:06:48Z
2021-01-26T15:08:48Z,42.805,6.029,13.2990,4.60003,2470.18,2021-1-26T17:09:51Z
2021-01-26T15:11:52Z,42.805,6.029,13.2989,4.59999,2470.18,2021-1-26T17:12:54Z
2021-01-26T15:14:55Z,42.805,6.029,13.2990,4.59998,2470.18,2021-1-26T17:15:57Z